sat.trackr.live / text

‹ back to catalog

GLOBAL-2

NORAD 43812 · 2018-099BG

PAYLOAD ACTIVE UNKNOWN

§ Identity

Operator
Country
US
Launch date
2018-12-03
Launch site
AFWTR
Launch vehicle
Mass (kg)
RCS (m²)

External: N2YO · Heavens-Above · Gunter

§ Orbital elements

Epoch: 2026-05-25T01:24:36.693792Z

Period
95.46 min
Inclination
97.3571°
Eccentricity
0.0004789
Mean motion
15.08511144 rev/d
Perigee alt
537.4 km
Apogee alt
544.1 km
Semi-major
6,918.9 km
B*
2.0099e-4
RAAN
182.5348°
Arg perigee
221.2702°
Mean anomaly
138.8165°
Rev number
40,842

§ Raw data

GLOBAL-21 43812U 18099BG  26145.05875803  .00003076  00000+0  20099-3 0  99972 43812  97.3571 182.5348 0004789 221.2702 138.8165 15.08511144408427

JSON: /api/v1/satellites/43812 · /tle

For live sub-satellite position, see the globe view (requires WebGL).

§ Visibility from observer

Set your observer location to see the next 7 days of passes ≥ 10°. The values pass through the URL so the page stays shareable.

No JS? Fill the form by hand. The geolocation button needs JavaScript.

§ Radio — SatNOGS DB

ModeDescriptionDownlinkUplink
FM Downlink Mode U 401.500 MHz
FM Mode U - Possibly Downlink 400.749 MHz

2 transmitters · refreshed weekly from db.satnogs.org